Location: St Paul
(33.9360°N, 83.4200°W)
Time: 19:52:36
(UTC-05:00)

GP-B - Pass Details

Date: 06 October 2017
Orbit: 632 x 635 km, 89.8° (Epoch: 14 December)

Event Time Altitude Azimuth Distance (km) Brightness Sun altitude
Rises 19:46:10 0° 14° (NNE) 2,936 6.4 -8.2°
Reaches altitude 10° 19:48:36 10° 24° (NNE) 2,024 5.5 -8.7°
Maximum altitude 19:52:35 32° 88° (E) 1,098 3.8 -9.5°
Drops below altitude 10° 19:56:33 10° 151° (SSE) 2,012 5.4 -10.3°
Sets 19:58:57 0° 162° (SSE) 2,916 6.3 -10.8°
